Denver, CO

6:03 PM MDT on October 21, 2017 (GMT -0600)
Front Range

Weather History for KFTG - November, 2012

Change the Weather History Date:

Wednesday, November 21, 2012

  Actual Average (KBKF) Record (KBKF)
Temperature  
Mean Temperature 56 °F -  
Max Temperature 71 °F 47 °F 71 °F (2012)
Min Temperature 41 °F 24 °F 8 °F (2015)
Degree Days  
Heating Degree Days 9    
Growing Degree Days 6 (Base 50)    
Moisture  
Dew Point 17 °F    
Average Humidity 25    
Maximum Humidity 49    
Minimum Humidity 11    
Precipitation  
Precipitation 0.00 in - - ()
Sea Level Pressure  
Sea Level Pressure 29.94 in    
Wind  
Wind Speed 9 mph (SSW)    
Max Wind Speed 16 mph    
Max Gust Speed -    
Visibility 10 miles    
Events      
Averages and records for this station are not official NWS values.
T = Trace of Precipitation, MM = Missing Value Source: NWS Daily Summary

Daily Weather History Graph

Daily Weather History Graph

Search for Another Location

Airport or City:

Trip Planner

Search our weather history database for the weather conditions in past years. The results will help you decide how hot, cold, wet, or windy it might be!

Date:

Astronomy

Nov. 21, 2012 Rise Set
Actual Time 6:50 AM MST 4:37 PM MST
Civil Twilight 6:20 AM MST 5:07 PM MST
Nautical Twilight 5:47 AM MST 5:40 PM MST
Astronomical Twilight 5:15 AM MST 6:12 PM MST
Moon 12:54 PM MST (11/21) 12:12 AM MST (11/21)
Length of Visible Light 10h 46m
Length of Day
9h 47m
Waxing Gibbous, 62% of the Moon is Illuminated
Nov 21
Waxing Gibbous
Nov 28
Full
Dec 6
Last Quarter
Dec 13
New
Dec 19
First Quarter

Hourly Weather History & Observations

Time (MST) Temp. Windchill Dew Point Humidity Pressure Visibility Wind Dir Wind Speed Gust Speed Precip Events Conditions
7:55 AM 48.2 °F - 21.2 °F 34% 30.06 in 50.0 mi South 9.2 mph - N/A   Partly Cloudy
8:50 AM 57.2 °F - 21.2 °F 25% 30.05 in 50.0 mi SSW 10.4 mph - N/A   Partly Cloudy
9:47 AM 62.6 °F - 19.4 °F 19% 30.04 in 50.0 mi SSW 9.2 mph - N/A   Partly Cloudy
11:47 AM 68.0 °F - 15.8 °F 13% 29.98 in 50.0 mi South 4.6 mph - N/A   Partly Cloudy
12:50 PM 71.6 °F - 14.0 °F 11% 29.95 in 50.0 mi SE 5.8 mph - N/A   Partly Cloudy
3:55 PM 66.2 °F - 21.2 °F 18% 29.90 in 50.0 mi NNW 8.1 mph - N/A   Scattered Clouds
4:47 PM 55.4 °F - 15.8 °F 21% 29.90 in 50.0 mi NNW 9.2 mph - N/A   Scattered Clouds
5:50 PM 55.4 °F - 12.2 °F 18% 29.91 in 10.0 mi NNW 8.1 mph - N/A   Partly Cloudy
7:50 PM 48.2 °F - 19.4 °F 32% 29.92 in 10.0 mi SSE 3.5 mph - N/A   Partly Cloudy
8:47 PM 41.0 °F 39.0 °F 21.2 °F 45% 29.93 in 10.0 mi South 3.5 mph - N/A   Partly Cloudy
9:00 PM 42.8 °F 40.1 °F 21.2 °F 42% 29.93 in 10.0 mi South 4.6 mph - N/A   Clear
9:20 PM 41.0 °F 34.7 °F 23.0 °F 49% 29.92 in 10.0 mi SSW 10.4 mph - N/A   Clear
9:40 PM 51.8 °F - 19.4 °F 28% 29.91 in 10.0 mi SSW 12.7 mph - N/A   Clear
9:59 PM 53.6 °F - 17.6 °F 24% 29.92 in 10.0 mi SSW 13.8 mph - N/A   Clear
10:20 PM 51.8 °F - 15.8 °F 24% 29.90 in 10.0 mi South 11.5 mph - N/A   Clear
10:40 PM 50.0 °F - 14.0 °F 24% 29.90 in 10.0 mi SSW 15.0 mph - N/A   Clear
11:00 PM 53.6 °F - 8.6 °F 16% 29.90 in 10.0 mi SSW 16.1 mph - N/A   Clear
11:20 PM 51.8 °F - 10.4 °F 19% 29.91 in 10.0 mi SSW 15.0 mph - N/A   Clear
11:37 PM 51.8 °F - 8.6 °F 18% 29.91 in 10.0 mi SSW 13.8 mph - N/A   Clear